Regional Weather Roundup
Issued by NWS Cleveland, OH

Home | Current Version | Previous Version | Text Only | Print | Product List | Glossary Off
Versions: 1 2 3 4 5 6 7 8 9 10 11 12 13 14 15 16 17 18 19 20 21 22 23 24 25 26 27 28 29 30 31 32 33 34 35 36 37 38 39 40 41 42 43 44 45 46 47 48 49 50

000
ASUS41 KCLE 041110
RWRCLE
OHIO REGIONAL WEATHER ROUNDUP
NATIONAL WEATHER SERVICE CLEVELAND, OH
700 AM EDT SAT JUL 04 2015

NOTE: "FAIR" INDICATES FEW OR NO CLOUDS BELOW 12,000 FEET WITH NO
SIGNIFICANT WEATHER AND/OR OBSTRUCTIONS TO VISIBILITY.

OHZ001>008-015>018-024>027-034-035-043-044-041200-
   NORTHWEST OHIO

CITY           SKY/WX    TMP DP  RH WIND       PRES   REMARKS
DEFIANCE       CLEAR     56  53  90 CALM      29.97R
FINDLAY        CLEAR     54  51  90 CALM      29.95R
TOLEDO EXPRESS CLEAR     53  51  93 CALM      29.96R FOG
TOLEDO EXEC    CLEAR     57  52  83 CALM      29.96R
LIMA           CLEAR     54  52  93 CALM      29.96R
$$

OHZ009>014-019>023-028>033-038-089-041200-
   NORTHEAST OHIO

CITY           SKY/WX    TMP DP  RH WIND       PRES   REMARKS
CLE-HOPKINS    CLEAR     57  55  93 W3        29.95R
CLE-LAKEFRONT  CLEAR     66  59  78 N8        29.92R
CUY CO. ARPT   PTCLDY    55  54  94 CALM      29.94
LORAIN-ELYRIA  CLEAR     55  54  96 NW5       29.95R FOG
ASHTABULA      SUNNY     56  54  93 CALM      29.93R
AKRON-CANTON   CLEAR     61  54  77 N10       29.92R
WOOSTER        MOCLDY    58  57  97 N3        29.94R FOG
MANSFIELD      PTCLDY    56  56 100 NW5       29.95R FOG
YOUNGSTOWN     MOSUNNY   59  56  89 CALM      29.91R
$$

OHZ042-051>053-060>062-070>072-077>081-041200-
  SOUTHWEST OHIO

CITY           SKY/WX    TMP DP  RH WIND       PRES   REMARKS
CINC-COVINGTON CLOUDY    67  64  90 N7        29.96R FOG
CINC-LUNKEN    CLOUDY    67  64  90 NE5       29.95R FOG
HAMILTON       CLOUDY    64  63  96 CALM      29.97R FOG
DAYTON         PTCLDY    61  57  87 NW3       29.97R
WRIGHT-PAT AFB PTCLDY    60  58  92 CALM      29.96R
DAYTON GENERAL MOCLDY    61  59  93 CALM      29.95R
WILMINGTON     CLEAR     60  58  92 CALM      29.95R FOG
$$

OHZ036-037-039>041-045>050-054>059-063>069-073>076-082>088-041200-
  CENTRAL AND SOUTHEAST OHIO

CITY           SKY/WX    TMP DP  RH WIND       PRES   REMARKS
COLUMBUS       PTCLDY    59  57  93 N6        29.94R
OSU AIRPORT    CLEAR     58  55  90 NW5       29.95R
BOLTON FIELD   CLEAR     58  56  95 MISG      29.95R
RICKENBACK AFB CLEAR     58  57  94 NW6       29.94R
NEWARK         CLEAR     58  56  93 CALM      29.94R FOG
MARION         CLEAR     55  52  89 CALM      29.96R FOG
LANCASTER      FOG       59  57  93 CALM      29.94R VSB 1/2
ZANESVILLE     NOT AVBL
NEW PHILLY     CLEAR     59  58  96 W3        29.92R
$$



USA.gov is the U.S. government's official web portal to all federal, state and local government web resources and services.